#timestamp,LO_Frequency,Hit,StdDev 
1568793615.6,286047002.3,N
1568793635.4,286047002.6,N
1568793655.2,286047000.5,N
1568793675.1,286047000.9,N
1568793706.0,286047002.7,E
1568793715.0,286046999.8,N
1568793715.9,286046999.8,P
1568793735.8,286046998.5,P
1568793755.6,286046998.2,N
1568793775.4,286047000.2,N
1568793795.3,286047002.1,N
1568793815.1,286047002.2,N
1568793835.9,286047001.0,N
1568793855.7,286047000.1,N
1568793875.5,286047002.2,N
1568793895.4,286047002.0,N
1568793915.2,286047004.0,N
1568793935.0,286047004.4,N
1568793935.9,286047004.4,N
1568793955.8,286047004.0,N
1568793975.6,286047004.2,N
1568793995.5,286047003.4,N
1568794015.3,286047003.7,N
1568794035.1,286047001.9,N
1568794055.9,286047002.7,N
1568794075.7,286047001.5,N
1568794095.5,286047001.7,N
1568794115.4,286047001.8,N
1568794135.2,286047004.0,N
1568794155.1,286047004.2,N
1568794156.0,286047004.2,N
1568794175.8,286047004.4,N
1568794195.6,286047001.4,N
1568794215.5,286047002.3,N
1568794235.3,286046999.7,N
1568794255.1,286046999.8,N
1568794275.9,286046999.9,N
1568794295.7,286047002.2,N
1568794315.6,286046999.8,N
1568794335.4,286047000.4,N
1568794355.2,286046999.7,N
1568794375.1,286047002.4,N
1568794376.0,286047002.4,N
1568794395.8,286046999.9,N
1568794415.7,286047001.2,N
1568794435.5,286046998.5,N
1568794455.3,286047001.2,N
1568794475.2,286046999.3,N
1568794495.0,286046998.7,N
1568794495.9,286046998.7,N
1568794515.8,286046999.2,N
1568794535.6,286046998.7,N
1568794555.4,286046996.9,N
1568794575.3,286046997.9,N
1568794595.1,286046996.3,N
1568794615.8,286046993.4,Y
1568794635.7,286046993.6,P
1568794655.5,286046995.9,N
1568794675.4,286046993.6,N
1568794695.2,286046994.7,N
1568794715.0,286046991.9,Y
1568794715.9,286046991.9,P
1568794735.8,286046997.0,N
1568794755.6,286046997.7,N
1568794775.5,286046997.4,N
1568794795.3,286046994.9,N
1568794815.1,286046995.7,N
1568794835.9,286046995.5,N
1568794855.7,286046996.1,N
1568794875.5,286046995.4,N
1568794895.4,286046995.0,Y
1568794915.2,286047002.7,P
1568794935.1,286046999.8,N
1568794936.0,286046999.8,N
1568794985.8,286047001.7,E
1568794995.7,286047000.0,N
1568795015.6,286046998.9,P
1568795035.4,286047000.5,N
1568795055.3,286046998.7,N
1568795075.1,286046996.9,Y
1568795095.8,286046998.1,P
1568795115.7,286046999.4,N
1568795135.5,286046998.5,N
1568795155.4,286046998.3,N
1568795175.2,286046998.4,N
1568795195.0,286046999.0,N
1568795195.9,286046999.0,N
1568795215.8,286047000.4,N
1568795235.6,286047001.0,N
1568795255.4,286047001.1,N
1568795275.3,286047001.1,N
1568795295.1,286047001.2,N
1568795315.9,286046999.9,N
1568795335.7,286047000.4,N
1568795355.5,286047000.8,N
1568795375.4,286047000.5,N
1568795395.2,286047000.7,N
1568795415.0,286047000.2,N
1568795416.0,286047000.2,N
1568795435.8,286047000.1,N
1568795455.6,286046999.8,N
1568795475.5,286047000.2,N
1568795495.3,286047000.2,N
1568795515.1,286046998.3,N
1568795535.9,286046999.4,N
1568795555.7,286047002.2,N
1568795575.6,286047001.0,N
1568795595.4,286047000.7,N
1568795615.2,286047002.5,N
1568795635.1,286047000.0,N
1568795636.0,286047000.0,N
1568795655.8,286047002.7,N
1568795675.6,286046999.9,N
1568795695.5,286047000.2,N
1568795715.3,286047001.1,N
1568795735.2,286047001.2,N
1568795755.9,286047000.4,N
1568795775.7,286047000.5,N
1568795795.6,286047000.9,N
1568795815.4,286046998.2,N
1568795835.3,286047000.8,N
1568795855.1,286046998.2,N
1568795856.0,286046998.2,N
1568795875.8,286047000.4,N
1568795895.7,286047000.5,N
1568795915.5,286046999.9,N
1568795935.3,286047000.6,N
1568795955.2,286047000.2,N
1568795975.0,286047001.1,N
1568795975.9,286047001.1,N
1568795995.8,286046999.9,N
1568796015.6,286047000.4,N
1568796035.4,286047001.0,N
1568796055.3,286047000.3,N
1568796075.1,286047001.5,N
1568796095.9,286047003.5,Y
1568796115.7,286047005.7,P
1568796135.5,286047004.2,N
1568796155.4,286047001.3,N
1568796175.2,286047001.7,N
1568796195.1,286047002.2,N
1568796196.0,286047002.2,N
1568796215.8,286047001.5,N
1568796235.6,286047002.6,N
1568796255.5,286047002.4,N
1568796275.3,286047002.3,N
1568796295.1,286047000.2,N
1568796315.9,286047000.4,N
1568796335.7,286047000.7,N
1568796355.6,286047000.4,N
1568796375.4,286046999.7,N
1568796395.2,286047002.8,N
1568796415.1,286047002.4,N
1568796416.0,286047002.4,N
1568796435.8,286046999.8,N
1568796455.7,286047002.6,N
1568796475.5,286047002.5,N
1568796495.3,286047004.4,Y
1568796515.2,286047000.5,P
1568796535.0,286046998.1,N
1568796535.9,286046998.1,N
1568796555.8,286047000.2,N
1568796575.6,286047002.5,N
1568796595.4,286047002.1,N
1568796615.3,286047001.4,N
1568796635.1,286047003.8,N
1568796655.9,286047003.9,N
1568796675.7,286047003.2,N
1568796695.5,286047003.4,N
1568796715.4,286047004.0,N
1568796735.2,286047001.9,N
1568796755.0,286046999.8,N
1568796756.0,286046999.8,N
1568796775.8,286047002.0,N
1568796795.6,286047004.4,N
1568796815.5,286047003.6,N
1568796835.3,286047005.9,Y
1568796855.1,286047004.0,P
1568796875.9,286047002.1,N
1568796895.7,286047000.3,N
1568796915.6,286047000.8,N
1568796935.4,286046998.1,N
1568796955.2,286046998.3,N
1568796975.1,286047000.5,N
1568796976.0,286047000.5,N
1568796995.8,286046998.4,N
1568797015.7,286047000.8,N
1568797035.5,286047000.3,N
1568797055.3,286047001.9,N
1568797075.2,286047004.0,N
1568797095.0,286047001.9,N
1568797095.9,286047001.9,N
1568797115.7,286047001.9,N
1568797135.6,286047002.1,N
1568797155.4,286047000.2,N
1568797175.3,286047002.4,N
1568797195.1,286047002.5,N
